Regional Weather Roundup
Issued by NWS

Home | Current Version | Previous Version | Text Only | Print | Product List | Glossary Off
Versions: 1 2 3 4 5 6 7 8 9 10 11 12 13 14 15 16 17 18 19 20 21 22 23 24 25 26 27 28 29 30 31 32 33 34 35 36 37 38 39 40 41 42 43 44 45 46 47 48 49 50

654
ASUS43 KBIS 180710
RWRND

NORTH DAKOTA REGIONAL WEATHER ROUNDUP
NATIONAL WEATHER SERVICE BISMARCK ND
200 AM CDT WED OCT 18 2017

NOTE: "FAIR" INDICATES FEW OR NO CLOUDS BELOW 12,000 FEET WITH NO
SIGNIFICANT WEATHER AND/OR OBSTRUCTIONS TO VISIBILITY.


NDZ001>003-009>011-017-180800-
NORTHWEST NORTH DAKOTA

CITY           SKY/WX    TMP DP  RH WIND       PRES   REMARKS
WILLISTON      LGT RAIN  59  34  39 NW35G45   29.64R
MINOT          MOCLDY    66  25  21 SW18G26   29.48S
MINOT AFB      CLOUDY    64  26  24 W20       29.47R
$$

NDZ018>021-031>035-040>046-180800-
SOUTHWEST NORTH DAKOTA

CITY           SKY/WX    TMP DP  RH WIND       PRES   REMARKS
BISMARCK       CLOUDY    58  28  32 SW5       29.61S
DICKINSON      CLOUDY    60  22  23 SW20      29.62R
GARRISON         N/A     60  29  30 W14       29.55R
HETTINGER ARPT CLOUDY    53  26  35 NW3       29.69R
$$

NDZ004>008-012>016-024-026-027-054-180800-
NORTHEAST NORTH DAKOTA

CITY           SKY/WX    TMP DP  RH WIND       PRES   REMARKS
GRAND FORKS    CLOUDY    54  38  54 S13       29.56S
GRND FRKS AFB  CLOUDY    60  34  37 SW12      29.56S
DEVILS LAKE    CLOUDY    59  40  49 SW17      29.53F
$$

NDZ022-023-025-028>030-036>039-047>053-180800-
SOUTHEAST NORTH DAKOTA

CITY           SKY/WX    TMP DP  RH WIND       PRES   REMARKS
FARGO          CLOUDY    55  42  61 S10       29.63F
JAMESTOWN      CLOUDY    52  37  56 S8        29.61S
$$





USA.gov is the U.S. government's official web portal to all federal, state and local government web resources and services.